Dewpoint
65 67 70 73 73 73 73 73 73 73 73 73 73 74 74 74 74 74 74 74 74 74 73 73 73 73 73 73 73 73 73 73 73 72 73 73 72 72 72 72 72 72 71 71 72 72 72 71 71 71 71 70 71 72 72 72 71 71 72 72 71 71 71 71 70 70 70 70 70 70 70 70 70 70 71 71 70 70 70 69 69 62 65 69 70
65 68 71 72 73 73 73 73 73 73 73 73 73 74 74 74 74 74 74 74 73 73 73 73 73 73 73 73 73 73 72 72 72 72 73 72 72 72 72 72 72 72 72 71 71 71 71 71 71 71 71 71 71 72 72 72 71 71 71 71 71 71 71 71 71 70 70 70 70 70 70 70 70 70 70 70 70 70 70 70 71 62 66 70 70
66 69 71 71 73 73 73 73 73 73 73 73 73 73 73 73 73 73 73 73 73 73 73 73 73 73 73 73 72 72 72 72 72 72 72 72 72 72 72 72 71 71 71 71 70 71 71 71 71 71 71 71 71 72 72 72 72 71 71 71 71 71 71 71 71 70 70 70 70 70 70 70 69 69 69 69 69 69 69 70 70 68 68 69 69
66 69 71 72 73 73 73 73 73 73 73 73 73 73 73 73 73 73 73 73 73 73 73 73 73 73 73 72 72 72 72 72 72 72 72 72 72 71 71 71 71 71 71 71 71 71 71 70 70 70 71 71 72 72 72 72 71 71 71 71 71 71 71 71 71 70 70 70 69 70 65 66 67 68 68 68 69 69 69 69 69 69 69 69 69
68 69 70 71 71 73 73 73 73 73 73 73 73 73 72 72 73 73 73 73 73 73 73 73 73 73 73 72 72 72 72 72 73 73 72 72 72 71 71 71 70 71 71 71 71 71 71 70 71 71 71 71 72 72 71 71 71 71 71 71 71 71 71 71 71 70 69 69 68 70 61 62 65 67 67 67 67 67 67 68 68 68 68 68 68
67 68 70 70 69 72 73 73 73 73 73 73 72 72 72 73 73 73 73 73 73 73 73 73 73 73 73 72 72 72 72 72 73 73 73 72 72 72 71 71 71 71 71 71 71 71 70 70 70 70 70 71 71 71 71 71 71 71 71 71 71 71 71 71 71 70 69 68 69 59 58 60 63 65 67 67 67 66 66 66 67 67 67 67 68
67 69 69 69 69 71 73 73 73 73 72 73 72 72 72 73 73 73 73 73 73 73 73 73 73 73 73 72 72 72 72 72 72 72 72 72 72 71 71 71 70 70 71 71 70 70 70 70 70 70 70 71 71 71 71 71 71 71 71 71 71 71 71 71 70 69 68 69 61 60 57 59 61 62 67 67 66 66 66 66 66 66 66 66 67
68 68 68 68 69 72 73 73 73 73 73 72 72 72 73 73 73 73 73 73 73 73 73 73 73 73 73 73 72 72 71 72 72 72 72 72 72 72 71 70 70 70 70 70 70 70 70 70 70 70 69 70 70 71 71 71 71 70 71 71 71 71 71 70 69 69 69 64 59 59 58 57 60 64 66 66 67 66 66 66 66 66 66 66 67
67 66 68 69 69 72 73 73 73 73 72 72 72 72 72 73 73 73 73 73 73 73 73 73 72 72 73 73 72 72 72 72 72 71 72 71 71 71 71 70 70 70 70 70 70 70 69 69 68 69 70 70 71 70 70 70 70 71 71 71 70 70 70 70 70 68 69 60 60 60 60 57 58 64 66 67 67 66 66 66 66 66 67 67 67
66 68 68 68 68 73 73 73 73 73 72 72 72 72 72 73 73 73 73 73 73 73 73 72 72 72 73 72 72 71 71 71 71 71 71 71 71 71 70 70 70 71 70 71 70 70 69 68 68 70 70 70 70 69 69 69 69 69 70 71 71 70 70 70 70 71 62 61 59 59 58 67 57 62 64 66 66 66 65 66 67 67 66 66 66
67 68 68 68 68 73 73 73 73 73 72 72 72 72 72 73 73 73 73 73 73 73 73 73 72 72 72 72 71 71 71 71 71 71 71 71 71 70 70 70 70 70 70 70 70 69 69 69 69 69 70 70 70 69 69 69 69 70 70 71 71 70 71 70 71 59 60 58 60 63 59 67 63 66 66 65 66 66 66 67 66 67 66 66 66
68 69 68 69 73 73 73 73 73 73 72 72 72 72 73 73 73 73 73 73 73 73 73 73 72 72 72 71 72 71 71 71 71 70 71 71 71 70 70 70 70 70 70 69 69 69 70 70 69 69 70 70 70 69 69 69 69 70 70 71 71 71 71 71 67 59 60 57 57 64 58 59 62 63 66 66 66 66 66 66 65 66 65 65 65
69 68 69 70 70 73 73 72 72 72 72 72 72 72 72 73 73 73 73 73 73 73 73 73 73 72 72 72 71 71 71 72 71 71 71 71 70 70 70 70 70 70 70 70 69 69 70 69 70 70 70 70 70 69 69 69 69 70 71 71 71 71 70 72 65 60 58 60 62 62 59 63 65 67 66 66 67 66 66 65 65 65 64 65 66
67 68 69 70 69 73 73 73 72 72 72 72 73 72 73 73 73 73 73 73 73 73 73 73 73 72 72 72 71 71 72 72 71 71 70 71 71 71 70 70 70 70 70 69 69 69 69 69 70 70 70 70 69 69 69 69 69 70 71 71 71 70 70 71 69 61 62 60 64 59 61 64 66 67 65 66 66 65 65 65 65 65 65 65 65
68 69 70 69 70 70 73 73 72 72 72 72 73 73 73 73 73 73 73 73 73 73 73 73 73 72 72 72 72 71 71 71 71 70 70 71 71 71 70 70 70 70 70 70 69 69 69 70 70 70 70 70 70 70 69 69 69 70 71 71 70 69 69 65 60 60 59 60 60 60 58 63 68 68 66 65 66 65 65 65 65 65 65 65 66
69 69 69 70 68 70 70 73 72 72 72 73 73 73 73 73 73 73 73 73 73 73 73 73 73 73 72 72 72 71 71 71 71 71 71 71 71 70 70 70 70 70 70 70 70 70 70 69 69 69 69 69 70 70 69 69 69 70 71 71 69 68 69 70 61 61 61 62 61 62 60 64 69 67 66 66 65 65 65 65 64 64 64 64 65
68 68 68 69 69 68 67 69 71 72 73 73 73 73 73 73 73 73 73 73 73 73 73 73 73 72 72 72 71 71 71 70 70 70 70 70 70 70 70 70 70 70 70 70 70 70 70 69 69 69 69 69 69 69 69 69 69 69 70 71 69 69 69 70 62 62 61 60 59 59 61 61 68 67 67 67 65 65 65 65 64 64 65 64 65
68 68 67 68 68 67 68 68 70 71 71 73 73 73 73 73 73 73 73 73 73 73 73 73 73 72 72 72 71 71 70 70 69 69 69 69 69 69 69 70 70 70 70 70 70 70 70 70 70 69 69 70 70 70 69 70 69 70 70 71 69 69 69 70 65 60 60 62 60 60 60 70 69 68 67 67 66 66 66 66 65 65 65 65 64
68 67 66 67 66 67 67 68 70 68 70 70 71 73 74 73 73 73 73 73 73 73 73 73 72 72 72 71 71 70 70 69 69 68 69 68 68 69 69 69 69 70 70 70 70 70 69 70 70 70 70 70 70 69 69 69 70 70 70 70 70 69 70 69 61 57 59 62 61 59 63 70 69 68 68 68 67 67 66 66 66 66 65 65 65
67 66 65 67 67 66 67 68 68 68 69 69 70 71 73 73 73 73 73 73 73 73 73 72 72 72 72 71 70 69 69 67 67 66 68 67 68 68 69 69 69 69 69 70 70 69 69 69 69 69 70 69 67 66 68 68 69 70 70 71 70 69 69 63 59 56 57 57 61 61 70 69 69 68 69 68 68 67 67 67 66 66 66 65 65
66 65 66 66 67 66 68 68 69 69 69 69 70 71 72 73 73 73 73 72 72 72 72 72 72 71 71 71 70 67 67 66 66 64 67 67 68 68 68 69 69 69 69 69 69 69 69 69 70 70 69 67 67 66 67 67 68 69 71 70 72 65 62 60 61 60 59 57 61 58 70 70 69 68 69 69 68 68 68 67 67 67 66 66 65
63 64 65 66 67 67 68 68 68 69 69 69 69 70 72 72 72 73 72 73 72 72 72 71 69 69 70 69 67 66 64 66 66 65 66 66 67 68 68 69 69 69 69 69 69 69 69 69 69 69 68 67 67 64 64 67 68 70 70 71 68 62 63 63 63 59 58 59 60 67 70 70 69 69 69 69 69 69 68 68 68 67 67 67 66
63 63 64 66 67 67 67 67 69 69 69 69 69 69 71 70 70 71 71 71 71 71 70 70 68 66 65 65 66 66 64 64 66 65 66 66 66 67 68 68 69 69 69 70 70 69 69 68 68 67 66 67 62 59 59 58 61 69 70 67 62 62 62 63 62 61 59 59 58 71 71 70 69 68 69 69 69 69 68 67 67 67 67 67 67
64 63 63 67 66 65 67 68 69 69 68 67 68 68 69 69 70 71 70 70 71 70 70 68 66 65 66 66 64 64 65 65 65 67 66 66 67 67 68 69 69 69 70 69 68 69 67 66 66 67 66 62 57 56 53 56 56 61 62 61 60 60 63 62 58 59 59 56 56 71 71 70 69 69 69 69 69 69 69 68 68 68 67 67 67
65 64 63 66 66 66 67 67 68 68 67 67 68 67 69 68 69 70 70 69 69 68 69 67 65 65 64 65 64 65 65 64 65 66 64 66 65 65 67 67 66 66 67 67 63 60 63 58 60 60 59 55 55 58 57 57 58 57 58 60 60 62 61 61 61 57 58 59 62 71 71 70 69 69 69 69 69 69 69 69 69 69 68 67 67
65 63 63 65 65 65 66 66 68 68 67 67 67 67 68 68 69 69 69 69 69 68 68 66 64 65 65 65 66 66 66 65 66 66 66 66 64 63 62 64 64 64 62 64 61 61 60 57 56 56 57 59 60 60 61 60 58 56 55 60 59 60 60 59 57 59 61 60 61 70 70 70 70 69 70 70 69 69 69 69 69 69 68 68 68
63 63 64 64 65 65 64 66 66 66 68 66 66 67 66 68 69 69 69 69 69 68 65 64 64 65 66 67 66 65 64 64 65 66 66 66 65 64 64 66 66 65 63 64 63 62 59 56 58 60 60 58 57 58 57 58 58 54 56 55 57 58 59 57 57 58 60 61 62 69 70 70 70 70 70 70 70 69 70 70 70 70 69 68 68
63 64 63 64 64 65 64 64 66 66 67 67 66 66 67 68 69 70 69 69 68 67 65 63 66 65 67 67 65 64 65 65 66 66 66 66 65 66 65 63 64 62 63 64 61 59 57 59 63 60 58 57 55 58 56 55 58 59 55 57 57 59 61 58 60 61 61 63 62 70 70 70 69 69 70 69 70 69 69 70 69 70 69 69 69
63 64 63 64 64 65 64 63 65 66 66 66 66 65 67 69 69 69 68 69 68 67 66 65 66 65 66 67 66 66 64 65 66 65 65 65 66 66 64 61 63 62 63 60 61 58 60 61 62 61 61 61 60 61 59 59 61 60 59 57 58 59 61 64 64 63 64 63 64 64 70 70 69 70 70 70 70 70 70 70 70 69 68 68 69
64 65 63 64 64 65 64 63 66 66 66 66 66 66 67 69 68 69 69 69 68 67 66 64 66 65 64 66 66 66 65 63 65 63 61 64 63 66 64 62 61 62 60 61 57 60 62 62 64 64 62 64 63 64 62 63 60 62 61 61 62 62 63 63 64 63 64 64 65 65 70 70 69 69 70 70 70 70 70 70 70 69 68 69 69
65 65 63 64 64 64 64 64 65 66 67 66 66 67 68 68 68 69 69 68 67 67 66 65 65 63 64 68 67 67 68 66 65 64 64 62 62 63 62 61 60 60 61 62 63 64 65 67 68 66 66 64 65 64 62 63 62 59 61 60 61 62 61 63 62 63 63 63 63 65 65 69 70 69 69 69 69 70 70 71 71 69 68 69 69
63 64 63 64 65 65 65 65 65 66 68 66 67 67 68 68 69 68 68 68 69 67 65 65 64 63 66 68 68 68 68 67 68 67 65 63 63 62 64 65 64 65 65 66 66 67 67 66 68 68 68 67 66 65 65 63 62 59 59 56 58 62 61 61 62 62 63 65 65 65 66 65 69 69 69 69 69 70 70 70 71 71 69 69 69
64 65 64 64 66 66 65 65 65 67 67 67 67 68 68 68 69 69 68 69 68 67 64 65 64 66 68 68 69 69 69 68 68 68 66 65 66 67 66 68 67 68 69 69 69 69 68 67 69 69 67 66 66 65 62 63 63 62 62 59 62 62 63 62 62 63 63 65 64 63 65 65 64 69 68 69 69 69 70 70 70 71 70 70 68
64 64 65 65 65 65 64 65 65 66 68 66 68 66 68 68 68 68 69 69 67 66 65 64 64 65 67 69 69 69 69 69 68 69 67 66 68 67 66 67 67 69 69 70 68 68 67 68 66 65 64 64 62 63 62 61 59 59 59 62 63 64 63 62 62 63 63 64 64 65 63 63 63 65 63 69 69 69 69 69 69 69 70 70 69
64 65 65 65 65 66 65 65 65 66 68 67 68 67 68 68 67 68 68 69 68 67 64 65 65 65 66 67 69 68 68 68 68 68 67 67 66 66 67 67 68 69 68 69 69 68 68 66 64 64 63 63 62 62 62 63 62 60 64 65 64 63 64 63 63 63 62 64 64 64 65 64 65 65 65 62 70 68 68 68 67 68 68 69 69
65 65 66 65 65 66 65 66 66 67 67 67 69 68 68 69 68 68 69 69 67 66 64 65 64 64 66 67 68 68 68 68 68 68 68 67 66 66 66 68 69 69 69 70 69 68 67 66 66 66 63 59 58 60 61 62 65 65 66 66 65 64 63 62 62 63 62 63 62 63 64 63 64 63 64 64 66 69 69 68 67 67 68 68 68
66 66 65 65 65 65 64 66 66 67 67 68 68 69 69 69 69 69 70 69 67 66 64 65 65 66 65 66 68 69 69 68 69 68 68 67 66 67 67 69 70 69 70 69 68 66 67 66 66 66 66 63 59 62 65 65 66 66 65 65 64 64 62 61 62 62 62 63 63 61 63 63 64 63 64 62 64 63 68 68 68 67 67 67 67
66 66 66 65 65 65 64 65 66 66 67 67 68 69 69 69 69 68 69 68 68 66 66 65 66 66 67 67 68 69 69 68 69 68 68 68 68 68 69 70 70 71 68 68 66 66 66 67 66 67 66 66 64 65 65 64 63 63 63 63 64 62 61 60 63 63 62 61 62 62 63 65 64 63 63 63 63 63 63 66 67 67 67 67 67
66 66 66 65 65 65 64 65 65 66 67 68 68 69 69 69 69 69 69 69 69 68 67 66 66 68 67 69 68 69 69 69 68 68 69 67 67 69 70 70 70 70 68 66 66 66 67 67 67 66 67 66 65 66 65 64 64 63 62 63 63 64 63 62 62 62 60 62 61 61 63 62 63 63 63 63 62 63 64 63 62 62 64 67 68
65 66 65 66 65 65 65 65 65 65 66 68 67 66 66 67 67 69 68 68 68 67 67 66 68 68 68 69 69 70 69 69 68 68 69 68 68 69 70 70 70 68 67 65 64 64 66 66 66 66 66 65 64 64 65 64 63 62 62 63 64 64 64 62 62 62 61 61 61 60 60 60 60 62 63 63 63 63 63 63 63 61 63 65 66
65 65 66 66 66 64 65 65 65 66 65 65 65 65 65 67 68 67 66 68 68 68 67 67 68 67 68 69 69 70 69 68 68 68 68 68 69 69 70 70 68 67 66 66 66 66 67 66 66 66 65 64 63 65 65 64 61 59 61 61 62 63 63 62 62 61 60 59 59 57 59 61 62 61 61 63 62 63 63 62 62 62 62 61 64
65 66 66 65 66 65 65 64 64 65 65 65 65 64 65 65 66 65 66 67 67 67 66 67 68 68 69 69 71 71 70 68 67 68 68 67 69 69 69 68 67 67 67 66 67 66 66 65 65 63 64 63 62 65 64 62 59 57 57 58 59 57 62 62 61 60 61 60 60 61 61 62 62 62 62 60 62 62 62 61 61 61 62 62 61
65 66 66 66 66 65 65 65 64 64 64 64 65 64 65 65 66 66 66 65 67 67 66 66 68 68 69 69 71 71 69 67 67 67 67 67 69 69 69 68 67 67 66 66 66 65 66 64 64 62 61 63 61 64 64 63 58 58 59 58 54 53 57 59 59 59 58 60 60 61 60 62 62 62 62 61 61 61 61 61 62 62 63 63 62
66 66 66 66 66 65 65 65 64 65 65 64 65 66 66 66 67 67 68 67 66 67 68 67 68 69 69 69 70 70 68 67 66 66 66 67 69 69 68 67 67 67 66 66 65 64 65 64 63 62 61 60 59 59 63 63 60 56 55 55 56 57 51 55 56 58 58 62 61 60 60 61 61 62 62 61 61 61 61 61 62 63 63 63 63
66 66 66 66 65 66 65 65 64 64 64 65 66 66 66 67 67 67 68 68 67 67 66 66 67 67 67 68 68 69 67 67 67 67 66 68 69 68 67 67 66 67 66 65 64 64 64 62 63 63 62 61 57 60 60 62 62 61 57 54 54 53 54 55 55 55 60 58 58 59 59 60 61 61 61 62 62 62 61 61 62 63 63 63 62
66 67 67 66 66 65 66 66 67 65 63 65 66 65 65 64 65 64 65 64 64 66 64 64 65 66 65 67 67 67 67 68 68 69 68 69 69 67 67 66 67 66 65 66 65 64 64 63 62 61 60 63 61 57 58 60 62 62 62 60 60 56 55 54 54 52 57 58 58 58 59 60 61 61 60 61 61 61 60 61 62 62 63 63 62
66 67 67 67 67 66 65 66 65 64 64 64 64 65 65 64 65 65 64 64 63 64 65 65 65 66 66 67 67 68 67 70 70 69 69 69 68 67 67 66 66 66 66 66 64 64 63 63 63 62 61 61 62 58 58 56 59 62 61 61 60 59 59 58 54 54 52 55 58 58 58 59 61 59 60 60 61 61 61 60 61 61 62 62 61
67 67 68 68 65 64 64 65 65 64 64 65 64 65 65 64 64 64 63 62 62 64 66 67 67 66 66 67 67 69 69 70 70 69 69 69 68 66 66 66 65 65 64 64 64 64 64 64 64 64 63 62 62 60 58 58 57 57 59 60 59 60 61 60 60 58 55 53 53 55 58 59 60 59 61 60 60 60 61 61 61 60 60 60 61
67 68 67 66 66 66 66 65 64 64 64 65 64 64 64 64 64 63 62 62 64 64 65 65 65 66 67 69 67 68 70 70 69 70 69 68 67 66 66 66 65 65 63 65 64 64 64 64 64 63 63 62 62 61 60 58 58 58 58 58 58 58 56 58 59 59 55 54 52 52 54 57 58 58 59 60 59 60 60 59 59 61 60 61 61
68 68 68 66 67 66 65 65 65 64 64 64 64 65 65 65 66 65 63 63 64 64 64 64 65 66 68 69 67 67 68 69 70 69 68 68 67 66 65 65 65 65 63 64 64 64 64 64 63 63 63 62 62 61 60 60 60 60 59 58 57 56 56 56 56 55 55 56 52 51 52 55 54 55 58 58 58 58 58 59 61 59 60 60 59
68 67 67 66 66 65 64 64 65 64 65 65 65 66 66 67 66 65 64 64 64 65 63 65 65 68 67 67 67 66 67 69 70 69 68 68 68 66 66 65 66 66 64 64 63 63 63 63 63 62 62 62 60 61 61 61 60 59 58 56 55 55 55 54 54 54 55 54 52 52 53 51 53 55 57 57 57 55 56 58 58 57 59 60 57